Simultaneous Nadir Overpasses (SNOs) Predictions

Prediction of SNOs between AQUA and GOES-15 Satellite Orbit:

Table of predicted SNOs for the next 14.0 days since TLE Epoch: 9/25/2015
Index Date Time (AQUA) AQUA Lat,Lon GOES-15 Lat,Lon Distance(km) Time Diff (sec)
1 09/26/2015 22:28:47 0.13,-133.34 -0.29,-135.22 214.30 80
2 09/27/2015 10:50:02 0.97,-138.50 0.27,-135.20 375.40 80
3 09/29/2015 10:37:52 0.35,-135.55 0.27,-135.17 42.92 80
4 10/01/2015 10:25:41 -0.29,-132.59 0.27,-135.13 289.06 80
5 10/01/2015 22:47:04 -0.80,-137.79 -0.26,-135.13 301.30 80
6 10/03/2015 22:34:52 -0.21,-134.82 -0.25,-135.09 30.11 80
7 10/05/2015 22:22:42 0.45,-131.87 -0.25,-135.05 361.20 80
8 10/06/2015 10:43:57 0.65,-137.03 0.23,-135.02 228.22 80
9 10/08/2015 10:31:45 0.03,-134.07 0.23,-134.97 102.51 80
10 10/08/2015 22:53:09 -1.11,-139.27 -0.21,-134.96 489.17 80




NCC Satellite Simultaneous Nadir Overpasses (SNOs) Prediction Service
